When you browse on this site, cookies collect data to enhance your experience and personalize the content and advertising you see.
Visit our Privacy Policy to learn more. By continuing to use the site, you agree to this use of cookies and data.
  • In Sweden
  • List of Countries
  • For 7 days
  • Water Temperature
  • Satellite Maps
  • Weather Map
  • Weather Widgets
  • user-avatar
    Login

    Hourly Weather Cheshire

    Today, 19 July, Friday

    Time Temperature Precipitation Wind Pressure Humidity
    00:00 +23°C° 0 mm 2 mps 752 mmHg 92%
    01:00 +22°C° 0 mm 1 mps 752 mmHg 92%
    02:00 +22°C° 0 mm 1 mps 752 mmHg 92%
    03:00 +22°C° 0 mm 1 mps 752 mmHg 93%
    04:00 +21°C° 0 mm 1 mps 751 mmHg 93%
    05:00 +22°C° 0 mm 1 mps 752 mmHg 90%
    06:00 +21°C° 0 mm 0 mps 752 mmHg 87%
    07:00 +22°C° 0 mm 0 mps 752 mmHg 84%
    08:00 +27°C° 0 mm 1 mps 752 mmHg 77%
    09:00 +29°C° 0 mm 1 mps 752 mmHg 69%
    10:00 +31°C° 0 mm 2 mps 752 mmHg 61%
    11:00 +32°C° 0 mm 2 mps 752 mmHg 58%
    12:00 +34°C° 0 mm 3 mps 751 mmHg 54%
    13:00 +35°C° 0 mm 3 mps 751 mmHg 50%
    14:00 +36°C° 0 mm 3 mps 751 mmHg 50%
    15:00 +36°C° 0 mm 4 mps 750 mmHg 50%
    16:00 +36°C° 0 mm 4 mps 750 mmHg 50%
    17:00 +34°C° 0 mm 4 mps 750 mmHg 57%
    18:00 +33°C° 0 mm 3 mps 750 mmHg 63%
    19:00 +30°C° 0 mm 3 mps 750 mmHg 70%
    20:00 +30°C° 0.1 mm 3 mps 750 mmHg 72%
    21:00 +29°C° 0.1 mm 3 mps 750 mmHg 74%
    22:00 +29°C° 0.1 mm 2 mps 751 mmHg 76%
    23:00 +29°C° 0 mm 2 mps 750 mmHg 75%

    Tomorrow, 20 July, Saturday

    Time Temperature Precipitation Wind Pressure Humidity
    00:00 +28°C° 0 mm 2 mps 750 mmHg 74%
    01:00 +28°C° 0 mm 2 mps 750 mmHg 73%
    02:00 +28°C° 0 mm 2 mps 750 mmHg 76%
    03:00 +27°C° 0 mm 2 mps 750 mmHg 79%
    04:00 +27°C° 0 mm 2 mps 749 mmHg 83%
    05:00 +27°C° 0 mm 1 mps 750 mmHg 80%
    06:00 +28°C° 0 mm 1 mps 750 mmHg 77%
    07:00 +29°C° 0 mm 1 mps 751 mmHg 75%
    08:00 +31°C° 0 mm 1 mps 751 mmHg 68%
    09:00 +34°C° 0 mm 2 mps 751 mmHg 62%
    10:00 +36°C° 0 mm 2 mps 751 mmHg 55%
    11:00 +36°C° 0 mm 2 mps 750 mmHg 52%
    12:00 +37°C° 0 mm 3 mps 750 mmHg 50%
    13:00 +38°C° 0 mm 3 mps 750 mmHg 47%
    14:00 +38°C° 0 mm 3 mps 749 mmHg 47%
    15:00 +38°C° 0 mm 3 mps 749 mmHg 47%
    16:00 +38°C° 0 mm 3 mps 749 mmHg 48%
    17:00 +37°C° 0 mm 3 mps 749 mmHg 54%
    18:00 +35°C° 0 mm 2 mps 750 mmHg 61%
    19:00 +32°C° 0 mm 2 mps 750 mmHg 67%
    20:00 +31°C° 0.1 mm 2 mps 750 mmHg 70%
    21:00 +30°C° 0.1 mm 2 mps 750 mmHg 73%
    22:00 +29°C° 0.1 mm 2 mps 750 mmHg 75%
    23:00 +29°C° 0 mm 2 mps 749 mmHg 75%

    Day after tomorrow, 21 July, Sunday

    Time Temperature Precipitation Wind Pressure Humidity
    00:00 +28°C° 0 mm 1 mps 749 mmHg 76%
    01:00 +27°C° 0 mm 1 mps 749 mmHg 76%
    02:00 +27°C° 0.2 mm 1 mps 749 mmHg 77%
    03:00 +26°C° 0.2 mm 1 mps 749 mmHg 79%
    04:00 +26°C° 0.2 mm 1 mps 749 mmHg 80%
    05:00 +27°C° 0 mm 1 mps 749 mmHg 79%
    06:00 +27°C° 0 mm 1 mps 749 mmHg 77%
    07:00 +28°C° 0 mm 1 mps 750 mmHg 76%
    08:00 +31°C° 0 mm 1 mps 749 mmHg 67%
    09:00 +34°C° 0 mm 2 mps 749 mmHg 59%
    10:00 +37°C° 0 mm 2 mps 749 mmHg 51%
    11:00 +38°C° 0 mm 2 mps 749 mmHg 47%
    12:00 +39°C° 0 mm 3 mps 748 mmHg 44%
    13:00 +41°C° 0 mm 4 mps 748 mmHg 40%
    14:00 +41°C° 0.1 mm 4 mps 748 mmHg 41%
    15:00 +40°C° 0.1 mm 4 mps 748 mmHg 41%
    16:00 +40°C° 0.1 mm 4 mps 748 mmHg 42%
    17:00 +36°C° 1.8 mm 4 mps 748 mmHg 55%
    18:00 +32°C° 1.8 mm 4 mps 748 mmHg 69%
    19:00 +28°C° 1.8 mm 4 mps 748 mmHg 82%
    20:00 +27°C° 1.3 mm 3 mps 748 mmHg 81%
    21:00 +26°C° 1.3 mm 2 mps 748 mmHg 80%
    22:00 +25°C° 1.3 mm 1 mps 748 mmHg 79%
    23:00 +25°C° 0.5 mm 1 mps 748 mmHg 80%

    22 July, Monday

    Time Temperature Precipitation Wind Pressure Humidity
    00:00 +25°C° 0.5 mm 1 mps 748 mmHg 82%
    01:00 +25°C° 0.5 mm 1 mps 748 mmHg 83%
    02:00 +25°C° 0.2 mm 1 mps 748 mmHg 84%
    03:00 +25°C° 0.2 mm 1 mps 748 mmHg 86%
    04:00 +25°C° 0.2 mm 1 mps 748 mmHg 87%
    05:00 +26°C° 0.1 mm 1 mps 748 mmHg 86%
    06:00 +26°C° 0.1 mm 1 mps 749 mmHg 85%
    07:00 +27°C° 0.1 mm 1 mps 749 mmHg 84%
    08:00 +26°C° 0.4 mm 1 mps 749 mmHg 84%
    09:00 +26°C° 0.4 mm 1 mps 749 mmHg 85%
    10:00 +25°C° 0.4 mm 1 mps 750 mmHg 85%
    11:00 +26°C° 0.2 mm 2 mps 750 mmHg 82%
    12:00 +26°C° 0.2 mm 2 mps 750 mmHg 78%
    13:00 +27°C° 0.2 mm 2 mps 750 mmHg 74%
    14:00 +26°C° 3.1 mm 2 mps 750 mmHg 81%
    15:00 +24°C° 3.1 mm 2 mps 750 mmHg 88%
    16:00 +23°C° 3.1 mm 2 mps 750 mmHg 95%
    17:00 +23°C° 3.8 mm 1 mps 750 mmHg 96%
    18:00 +23°C° 3.8 mm 1 mps 750 mmHg 96%
    19:00 +23°C° 3.8 mm 1 mps 750 mmHg 96%
    20:00 +22°C° 0.4 mm 1 mps 750 mmHg 95%
    21:00 +22°C° 0.4 mm 1 mps 750 mmHg 95%
    22:00 +21°C° 0.4 mm 2 mps 750 mmHg 94%
    23:00 +21°C° 0.2 mm 2 mps 750 mmHg 93%

    23 July, Tuesday

    Time Temperature Precipitation Wind Pressure Humidity
    00:00 +21°C° 0.2 mm 2 mps 750 mmHg 92%
    01:00 +20°C° 0.2 mm 2 mps 750 mmHg 92%
    02:00 +21°C° 0 mm 1 mps 751 mmHg 91%
    03:00 +21°C° 0 mm 1 mps 751 mmHg 90%
    04:00 +21°C° 0 mm 1 mps 751 mmHg 90%
    05:00 +21°C° 0 mm 1 mps 752 mmHg 88%
    06:00 +21°C° 0 mm 1 mps 752 mmHg 86%
    07:00 +22°C° 0 mm 1 mps 753 mmHg 84%
    08:00 +24°C° 0 mm 1 mps 753 mmHg 73%
    09:00 +25°C° 0 mm 2 mps 753 mmHg 62%
    10:00 +27°C° 0 mm 2 mps 753 mmHg 51%
    11:00 +27°C° 0 mm 2 mps 753 mmHg 51%
    12:00 +27°C° 0 mm 2 mps 753 mmHg 52%
    13:00 +28°C° 0 mm 1 mps 753 mmHg 53%
    14:00 +27°C° 0.1 mm 2 mps 753 mmHg 58%
    15:00 +26°C° 0.1 mm 2 mps 753 mmHg 63%
    16:00 +26°C° 0.1 mm 2 mps 753 mmHg 69%
    17:00 +24°C° 0.2 mm 2 mps 754 mmHg 74%
    18:00 +23°C° 0.2 mm 2 mps 754 mmHg 80%
    19:00 +21°C° 0.2 mm 2 mps 754 mmHg 86%
    20:00 +21°C° 0 mm 1 mps 754 mmHg 88%
    21:00 +21°C° 0 mm 1 mps 755 mmHg 89%
    22:00 +20°C° 0 mm 1 mps 755 mmHg 91%
    23:00 +20°C° 0 mm 1 mps 755 mmHg 89%

    24 July, Wednesday

    Time Temperature Precipitation Wind Pressure Humidity
    00:00 +20°C° 0 mm 1 mps 755 mmHg 88%
    01:00 +20°C° 0 mm 1 mps 755 mmHg 86%
    02:00 +19°C° 0 mm 1 mps 755 mmHg 84%
    03:00 +19°C° 0 mm 1 mps 755 mmHg 82%
    04:00 +18°C° 0 mm 1 mps 755 mmHg 80%
    05:00 +19°C° 0 mm 1 mps 755 mmHg 77%
    06:00 +20°C° 0 mm 1 mps 756 mmHg 75%
    07:00 +19°C° 0 mm 0 mps 756 mmHg 73%
    08:00 +22°C° 0 mm 0 mps 756 mmHg 64%
    09:00 +24°C° 0 mm 0 mps 756 mmHg 55%
    10:00 +27°C° 0 mm 0 mps 757 mmHg 46%
    11:00 +29°C° 0 mm 1 mps 756 mmHg 43%
    12:00 +30°C° 0 mm 1 mps 756 mmHg 40%
    13:00 +30°C° 0 mm 2 mps 756 mmHg 37%
    14:00 +29°C° 0 mm 2 mps 756 mmHg 40%
    15:00 +29°C° 0 mm 3 mps 755 mmHg 43%
    16:00 +29°C° 0 mm 3 mps 755 mmHg 45%
    17:00 +27°C° 0 mm 3 mps 755 mmHg 53%
    18:00 +25°C° 0 mm 3 mps 756 mmHg 61%
    19:00 +24°C° 0 mm 2 mps 756 mmHg 69%
    20:00 +23°C° 0 mm 2 mps 756 mmHg 72%
    21:00 +23°C° 0 mm 2 mps 756 mmHg 75%
    22:00 +21°C° 0 mm 2 mps 756 mmHg 78%
    23:00 +21°C° 0 mm 2 mps 756 mmHg 81%
    Show more